Simultaneous Nadir Overpasses (SNOs) Predictions

Prediction of SNOs between AURA and NPP Satellite Orbit:

Table of predicted SNOs for the next 14.0 days since TLE Epoch: 7/16/2016
Index Date (AURA) Time (AURA) Lat,Lon (AURA) SZA (AURA ) Date (NPP) Time (NPP) Lat,Lon (NPP) SZA (NPP ) Distance(km) Time Diff (sec)
1 07/16/2016 18:19:00 -79.04, -21.03 107.48 07/16/2016 18:18:01 -79.04, -21.05 107.43 0.32 59
2 07/16/2016 19:08:17 79.38, 148.79 72.03 07/16/2016 19:08:35 79.39, 148.88 72.00 2.02 18
3 07/19/2016 10:35:25 -79.15, 95.53 107.16 07/19/2016 10:34:52 -79.15, 95.52 107.13 0.27 33
4 07/19/2016 11:24:42 79.49, -94.61 72.35 07/19/2016 11:25:26 79.49, -94.51 72.30 2.10 44
5 07/22/2016 02:51:49 -79.29,-147.67 106.85 07/22/2016 02:51:42 -79.29,-147.65 106.85 0.48 7
6 07/22/2016 03:41:07 79.59, 21.96 72.72 07/22/2016 03:42:17 79.59, 22.09 72.65 2.83 70
7 07/24/2016 18:18:56 79.02, 158.86 74.09 07/24/2016 18:17:58 79.02, 158.80 74.14 1.26 58
8 07/24/2016 19:08:14 -79.39, -31.16 106.44 07/24/2016 19:08:33 -79.40, -31.08 106.47 1.68 19
9 07/27/2016 10:35:18 79.19, -84.21 74.43 07/27/2016 10:34:46 79.19, -84.18 74.45 0.60 32
10 07/27/2016 11:24:40 -79.40, 84.82 105.88 07/27/2016 11:25:26 -79.39, 84.69 105.89 2.80 46
11 07/30/2016 02:51:41 79.35, 32.72 74.82 07/30/2016 02:51:35 79.36, 32.87 74.79 3.08 6




NCC Satellite Simultaneous Nadir Overpasses (SNOs) Prediction Service
